This is the latest recevied weather packets stored in our database for station/object WE3WEE. If no packets are shown the sender has not sent any weather packets the latest 10 day(s).
| Time | Temp. | Humidity | Pressure | Rain* | Wind** | Luminosity | Snow |
|---|---|---|---|---|---|---|---|
| 1777957884 | 13.33° C | 74% | 1009.6 hPa | 0 mm | - | - | - |
| 1777957582 | 13.33° C | 74% | 1009.6 hPa | 0 mm | - | - | - |
| 1777957280 | 13.33° C | 71% | 1008.5 hPa | 0 mm | - | - | - |
| 1777956975 | 13.89° C | 70% | 1008.5 hPa | 0 mm | - | - | - |
| 1777956673 | 13.89° C | 68% | 1008.5 hPa | 0 mm | - | - | - |
| 1777956370 | 13.89° C | 69% | 1008.5 hPa | 0 mm | - | - | - |
| 1777956067 | 14.44° C | 68% | 1009.6 hPa | 0 mm | - | - | - |
| 1777955763 | 14.44° C | 66% | 1009.6 hPa | 0 mm | - | - | - |
| 1777955459 | 14.44° C | 65% | 1009.6 hPa | 0 mm | - | - | - |
| 1777955155 | 14.44° C | 66% | 1008.5 hPa | 0 mm | - | - | - |
| 1777954853 | 15° C | 65% | 1008.5 hPa | 0 mm | - | - | - |
| 1777954550 | 15° C | 62% | 1008.5 hPa | 0 mm | - | - | - |
| 1777954247 | 16.11° C | 62% | 1008.5 hPa | 0 mm | - | - | - |
| 1777953944 | 16.11° C | 59% | 1008.5 hPa | 0 mm | - | - | - |
| 1777953641 | 16.67° C | 58% | 1008.5 hPa | 0 mm | - | - | - |
| 1777953337 | 16.67° C | 58% | 1008.5 hPa | 0 mm | - | - | - |
| 1777953034 | 16.67° C | 57% | 1008.5 hPa | 0 mm | - | - | - |
| 1777952730 | 16.67° C | 57% | 1008.5 hPa | 0 mm | - | - | - |
| 1777952427 | 16.67° C | 57% | 1008.5 hPa | 0 mm | - | - | - |
| 1777952125 | 16.67° C | 56% | 1008.5 hPa | 0 mm | - | - | - |
| 1777951823 | 16.67° C | 57% | 1008.5 hPa | 0 mm | - | - | - |
| 1777951520 | 16.11° C | 57% | 1009.6 hPa | 0 mm | - | - | - |
| 1777951216 | 16.11° C | 59% | 1009.6 hPa | 0 mm | - | - | - |
| 1777950914 | 15.56° C | 57% | 1009.6 hPa | 0 mm | - | - | - |
| 1777950610 | 15.56° C | 59% | 1008.5 hPa | 0 mm | - | - | - |
* Rain latest hour (hover to see other rain measurements)
** Current wind speed in m/s (hover to see current wind gust speed)